Moncks Corner, SC

8:18 PM EST on November 24, 2017 (GMT -0500)
Moncks Corner

Weather History for KMKS - November, 2012

Change the Weather History Date:

Thursday, November 15, 2012

  Actual Average (KCHS) Record (KCHS)
Temperature  
Mean Temperature 48 °F -  
Max Temperature 51 °F 68 °F 83 °F (1955)
Min Temperature 44 °F 43 °F 27 °F (1969)
Degree Days  
Heating Degree Days 18    
Moisture  
Dew Point 45 °F    
Average Humidity 89    
Maximum Humidity 94    
Minimum Humidity 76    
Precipitation  
Precipitation 0.22 in - - ()
Sea Level Pressure  
Sea Level Pressure 30.22 in    
Wind  
Wind Speed 8 mph (North)    
Max Wind Speed 14 mph    
Max Gust Speed 25 mph    
Visibility 7 miles    
Events Rain , Thunderstorm    
Averages and records for this station are not official NWS values.
T = Trace of Precipitation, MM = Missing Value Source: NWS Daily Summary

Daily Weather History Graph

Daily Weather History Graph

Search for Another Location

Airport or City:

Trip Planner

Search our weather history database for the weather conditions in past years. The results will help you decide how hot, cold, wet, or windy it might be!

Date:

Astronomy

Nov. 15, 2012 Rise Set
Actual Time 6:51 AM EST 5:17 PM EST
Civil Twilight 6:25 AM EST 5:44 PM EST
Nautical Twilight 5:55 AM EST 6:14 PM EST
Astronomical Twilight 5:25 AM EST 6:43 PM EST
Moon 8:42 AM EST (11/15) 7:10 PM EST (11/15)
Length of Visible Light 11h 18m
Length of Day
10h 26m
Waxing Crescent, 5% of the Moon is Illuminated
Nov 15
Waxing Crescent
Nov 20
First Quarter
Nov 28
Full
Dec 6
Last Quarter
Dec 13
New

Hourly Weather History & Observations

Time (EST) Temp. Windchill Dew Point Humidity Pressure Visibility Wind Dir Wind Speed Gust Speed Precip Events Conditions
12:15 AM 51.8 °F - 44.6 °F 76% 30.26 in 10.0 mi NE 10.4 mph - N/A   Unknown
12:35 AM 51.8 °F - 44.6 °F 76% 30.25 in 7.0 mi NE 11.5 mph 17.3 mph N/A   Unknown
12:55 AM 50.0 °F - 44.6 °F 82% 30.24 in 10.0 mi NE 8.1 mph - N/A   Unknown
1:15 AM 50.0 °F - 44.6 °F 82% 30.24 in 7.0 mi NNE 10.4 mph - N/A   Overcast
1:35 AM 50.0 °F - 44.6 °F 82% 30.23 in 7.0 mi NE 8.1 mph - N/A   Overcast
1:55 AM 50.0 °F - 44.6 °F 82% 30.22 in 7.0 mi NE 8.1 mph - N/A   Drizzle
2:15 AM 48.2 °F - 46.4 °F 93% 30.21 in 7.0 mi ENE 6.9 mph - N/A   Light Drizzle
2:35 AM 48.2 °F - 44.6 °F 87% 30.21 in 7.0 mi NE 9.2 mph 16.1 mph N/A   Light Drizzle
2:55 AM 48.2 °F - 44.6 °F 87% 30.21 in 7.0 mi NE 8.1 mph - N/A   Light Drizzle
3:15 AM 48.2 °F - 44.6 °F 87% 30.21 in 5.0 mi NNE 8.1 mph - N/A   Overcast
3:35 AM 48.2 °F - 44.6 °F 87% 30.20 in 7.0 mi NNE 6.9 mph - N/A   Overcast
3:55 AM 48.2 °F - 44.6 °F 87% 30.19 in 7.0 mi NE 6.9 mph - N/A   Overcast
4:15 AM 48.2 °F - 44.6 °F 87% 30.18 in 10.0 mi NNE 8.1 mph - N/A Rain Light Rain
4:35 AM 48.2 °F - 44.6 °F 87% 30.19 in 10.0 mi NNE 8.1 mph - N/A   Light Drizzle
4:55 AM 48.2 °F - 44.6 °F 87% 30.18 in 7.0 mi NNE 10.4 mph - N/A   Overcast
5:15 AM 48.2 °F - 44.6 °F 87% 30.20 in 10.0 mi NNE 9.2 mph - N/A Rain Light Rain
5:35 AM 48.2 °F - 44.6 °F 87% 30.21 in 10.0 mi North 8.1 mph - 0.01 in Rain Light Rain
6:15 AM 48.2 °F - 44.6 °F 87% 30.22 in 7.0 mi North 9.2 mph 17.3 mph 0.02 in Rain Rain
6:35 AM 46.4 °F 41.5 °F 42.8 °F 87% 30.24 in 7.0 mi North 10.4 mph 16.1 mph 0.04 in Rain Rain
6:55 AM 46.4 °F 40.4 °F 42.8 °F 87% 30.25 in 10.0 mi North 13.8 mph 17.3 mph 0.06 in Rain Light Rain
7:15 AM 46.4 °F 41.1 °F 42.8 °F 87% 30.25 in 10.0 mi North 11.5 mph 17.3 mph 0.02 in Rain , Thunderstorm Light Thunderstorms and Rain
7:35 AM 46.4 °F 40.7 °F 42.8 °F 87% 30.26 in 10.0 mi North 12.7 mph 20.7 mph 0.03 in Rain Light Rain
7:55 AM 44.6 °F 38.8 °F 42.8 °F 93% 30.28 in 2.5 mi North 11.5 mph 24.2 mph 0.09 in Rain Heavy Rain
8:15 AM 44.6 °F 38.4 °F 41.0 °F 87% 30.27 in 10.0 mi NNE 12.7 mph 25.3 mph N/A Rain Light Rain
9:55 AM 44.6 °F 41.4 °F 42.8 °F 93% 30.24 in 10.0 mi NE 5.8 mph - N/A Rain Light Rain
10:15 AM 46.4 °F 42.9 °F 44.6 °F 93% 30.23 in 10.0 mi ENE 6.9 mph - 0.01 in Rain , Thunderstorm Light Thunderstorms and Rain
10:35 AM 46.4 °F 44.3 °F 44.6 °F 93% 30.24 in 10.0 mi East 4.6 mph - 0.01 in   Overcast
10:55 AM 48.2 °F - 44.6 °F 87% 30.24 in 7.0 mi NNE 3.5 mph - 0.03 in Rain Light Rain
11:15 AM 48.2 °F - 46.4 °F 93% - 10.0 mi Calm Calm - 0.01 in Rain Light Rain
11:35 AM 48.2 °F - 46.4 °F 93% 30.22 in 10.0 mi NNE 5.8 mph - 0.02 in Rain Light Rain
12:15 PM 50.0 °F - 46.4 °F 87% 30.21 in 10.0 mi NNW 5.8 mph - N/A Rain Light Rain
12:35 PM 50.0 °F - 46.4 °F 87% 30.21 in 10.0 mi North 5.8 mph - 0.01 in Rain Light Rain
12:55 PM 50.0 °F - 48.2 °F 94% 30.21 in 7.0 mi North 5.8 mph - 0.01 in   Overcast
1:15 PM 50.0 °F - 48.2 °F 94% 30.21 in 10.0 mi North 8.1 mph - N/A   Overcast
1:35 PM 50.0 °F - 48.2 °F 94% 30.21 in 7.0 mi North 8.1 mph - N/A   Overcast
1:55 PM 50.0 °F - 48.2 °F 94% 30.20 in 10.0 mi North 5.8 mph - N/A   Overcast
2:15 PM 51.8 °F - 48.2 °F 88% 30.20 in 7.0 mi North 5.8 mph - N/A   Overcast
2:35 PM 50.0 °F - 48.2 °F 94% 30.20 in 7.0 mi NNW 6.9 mph - N/A   Overcast
2:55 PM 48.2 °F - 46.4 °F 93% 30.20 in 3.0 mi NNW 8.1 mph - N/A   Mist
3:15 PM 48.2 °F - 46.4 °F 93% 30.20 in 2.5 mi North 9.2 mph - N/A   Mist
3:35 PM 48.2 °F - 44.6 °F 87% 30.20 in 3.0 mi North 10.4 mph - N/A   Mist
3:55 PM 46.4 °F 42.4 °F 44.6 °F 93% 30.21 in 3.0 mi North 8.1 mph 16.1 mph N/A   Mist
4:15 PM 46.4 °F 41.9 °F 44.6 °F 93% 30.21 in 3.0 mi North 9.2 mph - N/A   Mist
4:35 PM 46.4 °F 42.9 °F 44.6 °F 93% 30.21 in 4.0 mi North 6.9 mph - N/A   Mist
4:55 PM 46.4 °F 42.9 °F 44.6 °F 93% 30.21 in 4.0 mi North 6.9 mph - N/A   Mist
5:15 PM 46.4 °F 42.9 °F 44.6 °F 93% 30.21 in 3.0 mi North 6.9 mph - N/A   Overcast
5:35 PM 46.4 °F 43.5 °F 44.6 °F 93% 30.22 in 5.0 mi North 5.8 mph - N/A   Overcast
5:55 PM 46.4 °F 43.5 °F 44.6 °F 93% 30.22 in 5.0 mi North 5.8 mph - N/A   Overcast
6:15 PM 46.4 °F 44.3 °F 42.8 °F 87% 30.22 in 5.0 mi North 4.6 mph - N/A   Overcast
6:35 PM 46.4 °F 44.3 °F 42.8 °F 87% 30.23 in 7.0 mi North 4.6 mph - N/A   Overcast
6:55 PM 46.4 °F 43.5 °F 42.8 °F 87% 30.23 in 5.0 mi North 5.8 mph - N/A   Overcast
7:15 PM 46.4 °F 43.5 °F 42.8 °F 87% 30.24 in 5.0 mi North 5.8 mph - N/A   Overcast
7:35 PM 46.4 °F 43.5 °F 42.8 °F 87% 30.24 in 7.0 mi North 5.8 mph - N/A   Overcast
8:15 PM 46.4 °F 43.5 °F 44.6 °F 93% 30.24 in 7.0 mi North 5.8 mph - N/A   Overcast
8:35 PM 46.4 °F 42.9 °F 44.6 °F 93% 30.24 in 3.0 mi North 6.9 mph - N/A   Overcast
8:55 PM 46.4 °F 44.3 °F 44.6 °F 93% 30.24 in 2.5 mi North 4.6 mph - N/A   Overcast
9:15 PM 46.4 °F 43.5 °F 44.6 °F 93% 30.24 in 4.0 mi North 5.8 mph - N/A   Overcast
9:35 PM 46.4 °F 42.4 °F 44.6 °F 93% 30.24 in 5.0 mi North 8.1 mph - N/A   Overcast
9:55 PM 46.4 °F 44.3 °F 44.6 °F 93% 30.24 in 5.0 mi North 4.6 mph - N/A   Overcast
10:15 PM 46.4 °F 43.5 °F 44.6 °F 93% 30.24 in 4.0 mi North 5.8 mph - N/A   Overcast
10:35 PM 46.4 °F 44.3 °F 44.6 °F 93% 30.24 in 3.0 mi North 4.6 mph - N/A   Overcast
10:55 PM 46.4 °F 42.9 °F 44.6 °F 93% 30.24 in 3.0 mi North 6.9 mph - N/A   Overcast
11:15 PM 46.4 °F 44.3 °F 44.6 °F 93% 30.23 in 3.0 mi North 4.6 mph - N/A   Overcast
11:35 PM 46.4 °F 44.3 °F 44.6 °F 93% 30.23 in 3.0 mi North 4.6 mph - N/A   Overcast
11:55 PM 46.4 °F 45.2 °F 44.6 °F 93% 30.23 in 3.0 mi North 3.5 mph - N/A   Overcast